User: anonymous   Login
Location: Lombard
(41.8800°N, 88.0080°W)
Time: 17:27:18
(UTC-06:00)
Language:

ZACube-1 - Orbit

View from above orbital plane
View from above orbital plane
View from above satellite
View from above satellite

Ground track
Ground track

The orbit data is extracted from the following two-line orbital elements,

1 39417U 13066B   22342.35102405  .00002231  00000-0  27286-3 0  9999
2 39417  97.6606 306.2861 0056285 192.8220 167.1567 14.83097068488892
Epoch (UTC): 08 December 2022 08:25:28
Eccentricity: 0.0056285
inclination: 97.6606°
perigee height: 580 km
apogee height: 659 km
right ascension of ascending node: 306.2861°
argument of perigee: 192.8220°
revolutions per day: 14.83097068
mean anomaly at epoch: 167.1567°
orbit number at epoch: 48889

The dashed part of the orbit path shows where the satellite is in the earth's shadow,  

DLR